CW7016 Mercerville NJ US current weather conditions

sailwx.info

Wind from 011 at 11 knots gusting 10

Air temperature 4.4° C
Dewpoint 0.9° C

Last reported at 2020-Jan-28 21:02 UTC.
Time now 2020-Jan-28 22:02 UTC

Location: N 40°14' W 074°42'.
View on Google Maps.

See reports from other nearby stations

  
Tides and Currents Weather Stations Pressure Air Temp Water Temp Dewpoint Dewpoint Depression Visibility Wind Speed Wind Dir Waves Ship Positions
date/time (UTC)wind fromknots sea level pressurealtimeterstation pressurevisibilityair tempwater tempwave heightnotes
2020-Jan-28 21:02 011 11 gusting 10 4.4
2020-Jan-28 20:32 347 5 gusting 8 4.4
2020-Jan-28 20:02 360 4.4
2020-Jan-28 19:32 342 4.4
2020-Jan-28 19:02 360 0 gusting 6 4.4
2020-Jan-28 18:32 011 6 gusting 10 4.4
2020-Jan-28 18:02 309 5 gusting 13 6.1
2020-Jan-28 17:32 285 3 gusting 12 6.1
2020-Jan-28 17:02 321 6 gusting 15 5.6
2020-Jan-28 16:32 345 6 gusting 13 6.7
2020-Jan-28 16:02 350 15 gusting 11 6.1
2020-Jan-28 15:32 349 5.6
2020-Jan-28 15:02 300 6 gusting 12 4.4
2020-Jan-28 14:32 005 3.9
2020-Jan-28 14:02 287 6 gusting 9 3.3
2020-Jan-28 13:32 328 0 gusting 6 2.2
2020-Jan-28 13:02 298 1.1
2020-Jan-28 12:32 306 2.2
2020-Jan-28 12:02 306 2.2
2020-Jan-28 11:32 306 2.2
2020-Jan-28 11:02 306 2.2
2020-Jan-28 10:32 306 2.2
2020-Jan-28 10:02 296 2.8
2020-Jan-28 09:32 311 0 gusting 5 2.8
2020-Jan-28 09:02 360 3 gusting 4 2.8
2020-Jan-28 08:32 292 2.8
2020-Jan-28 08:02 273 2.8
2020-Jan-28 07:32 355 6 gusting 11 3.3
2020-Jan-28 07:02 360 0 gusting 6 3.3
2020-Jan-28 06:32 324 0 gusting 4 3.3
2020-Jan-28 06:02 296 3.3
2020-Jan-28 05:32 292 3.9
2020-Jan-28 05:03 292 3.9
2020-Jan-28 04:32 290 2 gusting 6 4.4
2020-Jan-28 04:02 355 2 gusting 6 4.4
2020-Jan-28 03:32 265 4.4
2020-Jan-28 03:02 263 4.4
2020-Jan-28 02:32 258 4.4
2020-Jan-28 02:02 258 4.4
2020-Jan-28 01:32 281 2 gusting 5 4.4
2020-Jan-28 01:02 271 4.4
2020-Jan-28 00:32 289 0 gusting 6 4.4
2020-Jan-28 00:02 284 5.0
2020-Jan-27 23:32 277 2 gusting 4 5.6
2020-Jan-27 23:02 265 5.6
2020-Jan-27 22:32 281 6.1
2020-Jan-27 22:02 290 6.1
2020-Jan-27 21:32 297 6 gusting 8 6.1
2020-Jan-27 21:02 296 6.7
2020-Jan-27 20:32 284 5 gusting 10 6.7
2020-Jan-27 20:02 292 6.7
2020-Jan-27 19:32 275 5 gusting 9 6.7
2020-Jan-27 19:02 278 8 gusting 13 6.1
2020-Jan-27 18:32 286 5 gusting 10 6.1
2020-Jan-27 18:02 264 0 gusting 9 6.1
2020-Jan-27 17:32 271 5 gusting 11 6.1
2020-Jan-27 17:02 281 2 gusting 12 6.1
2020-Jan-27 16:32 275 2 gusting 12 6.1
2020-Jan-27 16:02 240 8 gusting 11 5.6
2020-Jan-27 15:32 306 6 gusting 12 5.6
2020-Jan-27 15:02 209 3 gusting 15 5.0
2020-Jan-27 14:32 271 3 gusting 12 5.0
2020-Jan-27 14:02 217 5 gusting 8 3.9
2020-Jan-27 13:32 236 5 gusting 6 3.3
2020-Jan-27 13:02 234 2.8
2020-Jan-27 12:32 234 2.8
2020-Jan-27 12:02 234 2.8
2020-Jan-27 11:32 234 2.8
2020-Jan-27 11:02 234 2.8
2020-Jan-27 10:32 223 5 gusting 7 2.8
2020-Jan-27 10:02 239 5 gusting 6 2.8
2020-Jan-27 09:32 259 6 gusting 7 2.2
2020-Jan-27 09:02 241 0 gusting 6 2.2
2020-Jan-27 08:32 227 6 gusting 5 2.2
2020-Jan-27 08:02 245 0 gusting 6 1.7
2020-Jan-27 07:32 250 0.6
2020-Jan-27 07:02 264 -0.0
2020-Jan-27 06:32 265 -0.0
2020-Jan-27 06:02 265 -0.0
2020-Jan-27 05:32 265 -0.0
2020-Jan-27 05:02 265 0.6
2020-Jan-27 04:32 265 1.1
2020-Jan-27 04:02 265 1.1
2020-Jan-27 03:32 273 1.7
2020-Jan-27 03:02 273 2.8
2020-Jan-27 02:32 273 3.3
2020-Jan-27 02:02 273 3.9
2020-Jan-27 01:32 278 3.9
2020-Jan-27 01:02 290 4.4
2020-Jan-27 00:32 278 4.4
2020-Jan-27 00:02 277 5.6
2020-Jan-26 23:32 296 0 gusting 11 6.1
2020-Jan-26 23:02 229 6.1
2020-Jan-26 22:32 252 0 gusting 4 6.1
2020-Jan-26 22:02 285 6.1